Weather History for Lone Rock, WI

Change the Weather History Date:

Friday, September 20, 2013

  Actual Average Record
Temperature  
Mean Temperature 63 °F -  
Max Temperature 69 °F 68 °F 82 °F (2005)
Min Temperature 55 °F 46 °F 36 °F (2006)
Degree Days  
Heating Degree Days 2    
Growing Degree Days 13 (Base 50)    
Moisture  
Dew Point 60 °F    
Average Humidity 84    
Maximum Humidity 96    
Minimum Humidity 65    
Precipitation  
Precipitation 0.00 in - - ()
Sea Level Pressure  
Sea Level Pressure 29.79 in    
Wind  
Wind Speed 6 mph (West)    
Max Wind Speed 18 mph    
Max Gust Speed 25 mph    
Visibility 9 miles    
Events      
Averages and records for this station are not official NWS values.
T = Trace of Precipitation, MM = Missing Value Source: NWS Daily Summary

Daily Weather History Graph

Daily Weather History Graph

Search for Another Location

Airport:

Trip Planner

Search our weather history database for the weather conditions in past years. The results will help you decide how hot, cold, wet, or windy it might be!

Date:

Astronomy

Sep. 20, 2013 Rise Set
Actual Time 6:46 AM CDT 7:01 PM CDT
Civil Twilight 6:17 AM CDT 7:29 PM CDT
Nautical Twilight 5:44 AM CDT 8:02 PM CDT
Astronomical Twilight 5:09 AM CDT 8:37 PM CDT
Moon 7:31 PM CDT (9/20) 8:04 AM CDT (9/20)
Length of Visible Light 13h 12m
Length of Day
12h 15m
Full, 98% of the Moon is Illuminated
Sep 20
Full
Sep 26
Last Quarter
Oct 4
New
Oct 11
First Quarter
Oct 18
Full

Hourly Weather History & Observations

Time (CDT) Temp. Dew Point Humidity Pressure Visibility Wind Dir Wind Speed Gust Speed Precip Events Conditions
12:26 AM 69.8 °F 66.2 °F 88% 29.79 in 10.0 mi SW 4.6 mph - N/A   Overcast
12:56 AM 69.1 °F 66.9 °F 93% 29.76 in 10.0 mi Calm Calm - N/A   Overcast
1:45 AM 68.0 °F 66.2 °F 94% 29.78 in 8.0 mi Calm Calm - N/A   Overcast
1:56 AM 68.0 °F 66.9 °F 96% 29.75 in 8.0 mi Calm Calm - N/A   Overcast
2:10 AM 69.8 °F 66.2 °F 88% 29.77 in 8.0 mi Calm Calm - N/A   Overcast
2:56 AM 69.1 °F 66.9 °F 93% 29.73 in 8.0 mi West 3.5 mph - N/A   Overcast
3:39 AM 69.8 °F 66.2 °F 88% 29.75 in 8.0 mi WSW 6.9 mph - N/A   Overcast
3:56 AM 69.1 °F 66.9 °F 93% 29.72 in 8.0 mi WSW 4.6 mph - 0.00 in   Overcast
4:56 AM 69.1 °F 66.9 °F 93% 29.73 in 9.0 mi West 6.9 mph - N/A   Overcast
5:26 AM 69.8 °F 66.2 °F 88% 29.75 in 10.0 mi WNW 9.2 mph - N/A   Overcast
5:42 AM 68.0 °F 64.4 °F 88% 29.76 in 10.0 mi West 9.2 mph - N/A   Overcast
5:56 AM 68.0 °F 64.9 °F 90% 29.75 in 9.0 mi West 6.9 mph - N/A   Overcast
6:56 AM 66.9 °F 64.0 °F 90% 29.77 in 8.0 mi West 8.1 mph - N/A   Overcast
7:27 AM 66.2 °F 62.6 °F 88% 29.80 in 8.0 mi West 8.1 mph - N/A   Scattered Clouds
7:56 AM 66.0 °F 64.0 °F 93% 29.78 in 6.0 mi West 4.6 mph - N/A   Mostly Cloudy
8:31 AM 64.4 °F 60.8 °F 88% 29.82 in 10.0 mi West 10.4 mph - N/A   Overcast
8:56 AM 64.0 °F 60.1 °F 87% 29.81 in 10.0 mi West 10.4 mph 18.4 mph N/A   Overcast
9:56 AM 63.0 °F 57.0 °F 81% 29.82 in 10.0 mi West 9.2 mph - N/A   Overcast
10:56 AM 63.0 °F 57.0 °F 81% 29.82 in 10.0 mi West 11.5 mph - N/A   Overcast
11:56 AM 63.0 °F 55.9 °F 78% 29.82 in 8.0 mi West 12.7 mph 17.3 mph N/A   Overcast
12:43 PM 62.6 °F 53.6 °F 72% 29.84 in 10.0 mi WNW 18.4 mph - N/A   Overcast
12:56 PM 64.0 °F 54.0 °F 70% 29.82 in 10.0 mi WNW 16.1 mph 25.3 mph N/A   Mostly Cloudy
1:56 PM 64.9 °F 54.0 °F 68% 29.81 in 10.0 mi West 8.1 mph 16.1 mph N/A   Mostly Cloudy
2:56 PM 66.0 °F 54.0 °F 65% 29.80 in 10.0 mi West 12.7 mph 19.6 mph N/A   Overcast
3:56 PM 64.9 °F 53.1 °F 65% 29.81 in 10.0 mi WNW 9.2 mph - N/A   Overcast
4:56 PM 64.0 °F 54.0 °F 70% 29.81 in 10.0 mi West 11.5 mph - N/A   Overcast
5:56 PM 63.0 °F 54.0 °F 72% 29.81 in 10.0 mi WSW 5.8 mph - N/A   Mostly Cloudy
6:56 PM 63.0 °F 55.0 °F 75% 29.82 in 10.0 mi West 5.8 mph - N/A   Overcast
7:56 PM 61.0 °F 55.9 °F 83% 29.83 in 10.0 mi WSW 4.6 mph - N/A   Overcast
8:56 PM 60.1 °F 55.9 °F 86% 29.84 in 10.0 mi West 5.8 mph - N/A   Overcast
9:56 PM 59.0 °F 53.1 °F 81% 29.84 in 10.0 mi WNW 5.8 mph - N/A   Partly Cloudy
10:56 PM 57.0 °F 54.0 °F 89% 29.86 in 10.0 mi West 4.6 mph - N/A   Overcast
11:56 PM 55.9 °F 52.0 °F 87% 29.86 in 10.0 mi West 3.5 mph - N/A   Partly Cloudy